KC5DAQ-25 Weather Reports


Display with metric or nautical units.
time (UTC)temp
F
wind
direction
speed
MPH
gust
MPH
rain 1hr
in
rain 24hr
in
rain mn
in
humidity
%
barometer
mb
20260504005802 68 114 0.0 0.0 0.00 0.00 0.00 66 1008.7
20260504005704 68 114 0.0 0.0 0.00 0.00 0.00 66 1008.8
20260504005603 68 114 0.0 0.0 0.00 0.00 0.00 66 1008.9
20260504005502 68 114 0.0 0.0 0.00 0.00 0.00 66 1008.9
20260504005403 68 114 0.0 0.0 0.00 0.00 0.00 66 1008.9
20260504005304 68 114 0.0 0.0 0.00 0.00 0.00 66 1008.9
20260504005203 69 114 0.0 0.0 0.00 0.00 0.00 66 1008.9
20260504005101 69 114 0.0 0.0 0.00 0.00 0.00 67 1008.9
20260504005004 69 114 0.0 0.0 0.00 0.00 0.00 67 1008.9
20260504004903 69 114 0.0 0.0 0.00 0.00 0.00 67 1008.8
20260504004802 69 114 0.0 0.0 0.00 0.00 0.00 67 1008.8
20260504004703 69 114 0.0 0.0 0.00 0.00 0.00 67 1008.8
20260504004602 69 114 0.0 0.0 0.00 0.00 0.00 67 1008.8
20260504004502 69 114 0.0 0.0 0.00 0.00 0.00 67 1008.9
20260504004403 69 114 0.0 0.0 0.00 0.00 0.00 67 1008.9
20260504004302 69 114 0.0 0.0 0.00 0.00 0.00 67 1009.0
20260504004203 69 114 0.0 0.0 0.00 0.00 0.00 67 1008.9
20260504004103 69 114 0.0 0.0 0.00 0.00 0.00 67 1008.9
20260504004006 69 114 0.0 0.0 0.00 0.00 0.00 66 1008.9
20260504003904 69 114 0.0 0.0 0.00 0.00 0.00 65 1008.9
20260504003803 69 114 0.0 0.0 0.00 0.00 0.00 65 1008.9
20260504003701 69 114 0.0 0.0 0.00 0.00 0.00 65 1008.9
20260504003604 70 114 0.0 0.0 0.00 0.00 0.00 65 1008.9
20260504003503 70 114 0.0 0.0 0.00 0.00 0.00 65 1008.9
20260504003404 70 114 0.0 0.0 0.00 0.00 0.00 65 1008.9
20260504003302 70 114 0.0 0.0 0.00 0.00 0.00 62 1008.9
20260504003202 70 114 0.0 0.0 0.00 0.00 0.00 62 1008.9
20260504003103 70 114 0.0 0.0 0.00 0.00 0.00 62 1008.9
20260504003005 70 114 0.0 0.0 0.00 0.00 0.00 62 1009.0
20260504002902 71 114 0.0 0.0 0.00 0.00 0.00 62 1008.9
20260504002802 71 114 0.0 0.0 0.00 0.00 0.00 62 1009.0
20260504002702 71 114 0.0 0.0 0.00 0.00 0.00 62 1008.9
20260504002604 71 114 0.0 0.0 0.00 0.00 0.00 63 1008.9
20260504002503 71 114 0.0 0.0 0.00 0.00 0.00 63 1009.0
20260504002402 71 114 0.0 0.0 0.00 0.00 0.00 60 1009.0
20260504002303 71 114 0.0 0.0 0.00 0.00 0.00 60 1009.0
20260504002204 71 114 0.0 0.0 0.00 0.00 0.00 59 1009.0
20260504002103 72 114 0.0 0.0 0.00 0.00 0.00 59 1009.1
20260504002003 72 114 0.0 0.0 0.00 0.00 0.00 61 1009.0
20260504001903 72 114 0.0 0.0 0.00 0.00 0.00 61 1009.0
20260504001803 72 114 0.0 0.0 0.00 0.00 0.00 60 1009.1
20260504001704 72 114 0.0 0.0 0.00 0.00 0.00 60 1009.0
20260504001604 72 114 0.0 0.0 0.00 0.00 0.00 60 1009.0
20260504001502 72 114 0.0 0.0 0.00 0.00 0.00 61 1009.1
20260504001402 72 114 0.0 0.0 0.00 0.00 0.00 62 1009.1
20260504001301 73 114 0.0 0.0 0.00 0.00 0.00 62 1009.0
20260504001200 73 114 0.0 0.0 0.00 0.00 0.00 62 1009.1
20260504001053 73 114 0.0 0.0 0.00 0.00 0.00 62 1009.0
20260504000953 73 114 0.0 0.0 0.00 0.00 0.00 62 1009.0
20260504000850 73 114 0.0 0.0 0.00 0.00 0.00 58 1009.0
20260504000751 73 114 0.0 0.0 0.00 0.00 0.00 58 1008.9
20260504000648 73 114 0.0 0.0 0.00 0.00 0.00 58 1009.0
20260504000548 74 114 0.0 0.0 0.00 0.00 0.00 57 1009.0
20260504000446 74 114 0.0 1.0 0.00 0.00 0.00 57 1009.0
20260504000338 74 114 0.0 1.0 0.00 0.00 0.00 57 1008.9
20260504000237 74 114 0.0 1.0 0.00 0.00 0.00 57 1009.0
20260504000136 74 114 0.0 1.0 0.00 0.00 0.00 57 1008.9
20260504000033 74 114 0.0 1.0 0.00 0.00 0.00 57 1009.0
20260503235932 74 114 0.0 1.0 0.00 0.00 0.00 57 1009.1
20260503235829 74 114 0.0 1.0 0.00 0.00 0.00 57 1009.1
20260503235726 74 114 0.0 2.0 0.00 0.00 0.00 56 1009.2
20260503235627 74 114 0.0 2.0 0.00 0.00 0.00 55 1009.1
20260503235523 74 114 0.0 2.0 0.00 0.00 0.00 55 1009.2
20260503235425 74 114 0.0 2.0 0.00 0.00 0.00 54 1009.2
20260503235318 75 114 0.0 2.0 0.00 0.00 0.00 54 1009.1
20260503235214 75 114 0.0 2.0 0.00 0.00 0.00 54 1009.2
20260503235114 75 114 0.0 2.0 0.00 0.00 0.00 55 1009.2
20260503235013 75 114 0.0 2.0 0.00 0.00 0.00 56 1009.2
20260503234908 75 114 1.0 2.0 0.00 0.00 0.00 56 1009.2
20260503234809 75 116 1.0 2.0 0.00 0.00 0.00 56 1009.2
20260503234702 75 134 0.0 2.0 0.00 0.00 0.00 56 1009.2
20260503234603 75 134 0.0 1.0 0.00 0.00 0.00 56 1009.2
20260503234502 75 110 0.0 1.0 0.00 0.00 0.00 57 1009.2
20260503234402 75 110 0.0 1.0 0.00 0.00 0.00 56 1009.1
20260503234303 75 110 0.0 1.0 0.00 0.00 0.00 56 1009.2
20260503234202 75 140 0.0 1.0 0.00 0.00 0.00 56 1009.2
20260503234103 75 233 0.0 1.0 0.00 0.00 0.00 56 1009.1
20260503234002 75 233 0.0 1.0 0.00 0.00 0.00 55 1009.2
20260503233902 75 233 0.0 1.0 0.00 0.00 0.00 55 1009.1
20260503233803 75 233 0.0 1.0 0.00 0.00 0.00 53 1009.1
20260503233702 75 233 0.0 1.0 0.00 0.00 0.00 53 1009.1
20260503233602 75 233 0.0 1.0 0.00 0.00 0.00 53 1009.1
20260503233502 75 233 0.0 1.0 0.00 0.00 0.00 53 1009.1
20260503233404 75 233 0.0 1.0 0.00 0.00 0.00 53 1009.1
20260503233302 75 235 0.0 1.0 0.00 0.00 0.00 53 1009.1
20260503233204 75 235 0.0 0.0 0.00 0.00 0.00 55 1009.1
20260503233103 75 235 0.0 1.0 0.00 0.00 0.00 55 1009.0
20260503233003 75 235 0.0 1.0 0.00 0.00 0.00 55 1009.0
20260503232902 75 235 0.0 1.0 0.00 0.00 0.00 55 1009.1
20260503232802 75 235 0.0 1.0 0.00 0.00 0.00 57 1009.1
20260503232703 75 235 0.0 1.0 0.00 0.00 0.00 57 1009.2
20260503232603 75 235 0.0 1.0 0.00 0.00 0.00 55 1009.2
20260503232503 75 235 0.0 1.0 0.00 0.00 0.00 56 1009.2
20260503232402 75 235 0.0 1.0 0.00 0.00 0.00 56 1009.2
20260503232305 75 235 0.0 1.0 0.00 0.00 0.00 56 1009.2
20260503232202 75 235 0.0 1.0 0.00 0.00 0.00 56 1009.2
20260503232102 75 235 0.0 1.0 0.00 0.00 0.00 56 1009.3
20260503232004 75 235 0.0 1.0 0.00 0.00 0.00 57 1009.2
20260503231902 75 235 0.0 2.0 0.00 0.00 0.00 57 1009.2
20260503231804 75 235 0.0 2.0 0.00 0.00 0.00 57 1009.2
20260503231704 76 204 0.0 2.0 0.00 0.00 0.00 55 1009.2
20260503231601 76 204 0.0 2.0 0.00 0.00 0.00 55 1009.3
20260503231503 76 204 0.0 2.0 0.00 0.00 0.00 56 1009.3
20260503231402 76 204 0.0 2.0 0.00 0.00 0.00 52 1009.3
20260503231303 76 204 0.0 2.0 0.00 0.00 0.00 52 1009.3
20260503231202 76 204 0.0 2.0 0.00 0.00 0.00 60 1009.4
20260503231103 76 204 0.0 2.0 0.00 0.00 0.00 54 1009.3
20260503231002 76 204 1.0 2.0 0.00 0.00 0.00 54 1009.4
20260503230902 76 204 1.0 2.0 0.00 0.00 0.00 56 1009.4
20260503230808 76 103 0.0 1.0 0.00 0.00 0.00 56 1009.4
20260503230704 76 103 0.0 1.0 0.00 0.00 0.00 56 1009.3
20260503230602 76 102 0.0 1.0 0.00 0.00 0.00 56 1009.4
20260503230502 76 102 0.0 1.0 0.00 0.00 0.00 55 1009.3
20260503230402 76 103 0.0 1.0 0.00 0.00 0.00 53 1009.3
20260503230304 76 103 0.0 1.0 0.00 0.00 0.00 57 1009.4
20260503230204 76 103 0.0 2.0 0.00 0.00 0.00 57 1009.4
20260503230004 76 100 0.0 2.0 0.00 0.00 0.00 56 1009.3
20260503225902 76 102 0.0 2.0 0.00 0.00 0.00 56 1009.2
20260503225802 76 102 0.0 2.0 0.00 0.00 0.00 56 1009.3
20260503225702 76 102 0.0 2.0 0.00 0.00 0.00 56 1009.2
20260503225603 76 102 0.0 2.0 0.00 0.00 0.00 56 1009.3
20260503225505 76 102 0.0 2.0 0.00 0.00 0.00 53 1009.3
20260503225402 76 102 0.0 2.0 0.00 0.00 0.00 53 1009.3
20260503225304 76 102 0.0 2.0 0.00 0.00 0.00 54 1009.4
20260503225201 77 313 0.0 2.0 0.00 0.00 0.00 54 1009.4
20260503225102 77 313 0.0 2.0 0.00 0.00 0.00 51 1009.4
20260503225002 77 313 0.0 2.0 0.00 0.00 0.00 51 1009.3
20260503224902 77 313 0.0 2.0 0.00 0.00 0.00 52 1009.4
20260503224804 77 310 0.0 2.0 0.00 0.00 0.00 52 1009.4
20260503224703 77 310 0.0 2.0 0.00 0.00 0.00 52 1009.5
20260503224602 76 310 0.0 2.0 0.00 0.00 0.00 54 1009.4
20260503224502 76 314 0.0 2.0 0.00 0.00 0.00 54 1009.5
20260503224404 76 314 0.0 2.0 0.00 0.00 0.00 54 1009.6
20260503224302 77 314 0.0 2.0 0.00 0.00 0.00 54 1009.5
20260503224202 77 314 1.0 2.0 0.00 0.00 0.00 54 1009.5
20260503224102 77 312 1.0 2.0 0.00 0.00 0.00 49 1009.6
20260503224005 77 323 0.0 2.0 0.00 0.00 0.00 49 1009.6
20260503223903 77 323 0.0 2.0 0.00 0.00 0.00 49 1009.6
20260503223802 77 323 0.0 2.0 0.00 0.00 0.00 49 1009.6
20260503223704 77 323 0.0 2.0 0.00 0.00 0.00 49 1009.6
20260503223604 77 323 1.0 2.0 0.00 0.00 0.00 50 1009.6
20260503223504 77 351 1.0 2.0 0.00 0.00 0.00 50 1009.6
20260503223403 77 262 0.0 1.0 0.00 0.00 0.00 52 1009.5
20260503223303 78 262 0.0 2.0 0.00 0.00 0.00 52 1009.6
20260503223205 78 262 0.0 2.0 0.00 0.00 0.00 52 1009.6
20260503223104 78 262 0.0 2.0 0.00 0.00 0.00 49 1009.5
20260503223004 78 262 0.0 2.0 0.00 0.00 0.00 49 1009.5
20260503222904 78 262 0.0 2.0 0.00 0.00 0.00 48 1009.5
20260503222803 78 262 0.0 2.0 0.00 0.00 0.00 46 1009.5
20260503222703 78 262 0.0 2.0 0.00 0.00 0.00 47 1009.5
20260503222603 78 262 0.0 2.0 0.00 0.00 0.00 47 1009.5
20260503222509 78 262 1.0 2.0 0.00 0.00 0.00 50 1009.5
20260503222404 78 252 0.0 2.0 0.00 0.00 0.00 50 1009.6
20260503222304 78 252 0.0 2.0 0.00 0.00 0.00 48 1009.6
20260503222204 78 252 0.0 2.0 0.00 0.00 0.00 48 1009.7
20260503222103 78 279 0.0 2.0 0.00 0.00 0.00 48 1009.8
20260503222004 78 279 0.0 2.0 0.00 0.00 0.00 48 1009.8
20260503221903 78 279 0.0 2.0 0.00 0.00 0.00 47 1009.8
20260503221803 78 279 1.0 2.0 0.00 0.00 0.00 47 1009.8
20260503221703 78 279 1.0 2.0 0.00 0.00 0.00 47 1009.8
20260503221603 78 289 0.0 2.0 0.00 0.00 0.00 47 1009.8
20260503221504 77 41 1.0 2.0 0.00 0.00 0.00 47 1009.8
20260503221404 77 102 0.0 1.0 0.00 0.00 0.00 47 1009.8
20260503221303 77 102 0.0 1.0 0.00 0.00 0.00 47 1009.9
20260503221205 77 102 0.0 1.0 0.00 0.00 0.00 47 1009.8
20260503221105 77 102 0.0 1.0 0.00 0.00 0.00 47 1009.8
20260503221005 77 102 0.0 1.0 0.00 0.00 0.00 53 1009.9
20260503220903 77 102 0.0 1.0 0.00 0.00 0.00 53 1009.9
20260503220806 77 102 0.0 1.0 0.00 0.00 0.00 53 1009.9
20260503220703 77 102 0.0 1.0 0.00 0.00 0.00 50 1009.9
20260503220603 77 102 0.0 2.0 0.00 0.00 0.00 50 1010.0
20260503220504 77 102 0.0 2.0 0.00 0.00 0.00 51 1010.0
20260503220403 77 102 0.0 2.0 0.00 0.00 0.00 51 1010.0
20260503220303 78 102 0.0 2.0 0.00 0.00 0.00 49 1010.1
20260503220203 78 102 0.0 2.0 0.00 0.00 0.00 49 1010.0
20260503220105 78 102 0.0 2.0 0.00 0.00 0.00 50 1009.9
20260503220004 78 102 0.0 2.0 0.00 0.00 0.00 50 1010.0
20260503215910 78 103 0.0 2.0 0.00 0.00 0.00 46 1010.1
20260503215803 78 103 1.0 2.0 0.00 0.00 0.00 50 1010.1
20260503215702 78 99 1.0 2.0 0.00 0.00 0.00 48 1010.0
20260503215603 78 99 1.0 2.0 0.00 0.00 0.00 48 1010.1
20260503215504 78 99 1.0 2.0 0.00 0.00 0.00 47 1009.9
20260503215404 78 94 1.0 2.0 0.00 0.00 0.00 48 1010.0
20260503215304 78 190 1.0 2.0 0.00 0.00 0.00 47 1010.0
20260503215205 78 190 1.0 2.0 0.00 0.00 0.00 49 1009.9
20260503215103 78 188 1.0 2.0 0.00 0.00 0.00 49 1009.9
20260503215006 78 265 1.0 2.0 0.00 0.00 0.00 53 1010.0
20260503214904 78 265 0.0 2.0 0.00 0.00 0.00 53 1009.9
20260503214803 78 264 0.0 2.0 0.00 0.00 0.00 51 1010.0
20260503214704 78 264 0.0 2.0 0.00 0.00 0.00 49 1009.9
20260503214603 78 264 0.0 2.0 0.00 0.00 0.00 47 1009.9
20260503214505 78 264 0.0 2.0 0.00 0.00 0.00 47 1009.9
20260503214403 78 264 1.0 2.0 0.00 0.00 0.00 45 1010.0
20260503214303 78 264 1.0 2.0 0.00 0.00 0.00 45 1009.9
20260503214203 78 264 1.0 2.0 0.00 0.00 0.00 43 1009.9
20260503214102 78 264 1.0 2.0 0.00 0.00 0.00 43 1009.9
20260503214005 78 264 1.0 2.0 0.00 0.00 0.00 45 1009.9
20260503213854 78 264 1.0 2.0 0.00 0.00 0.00 44 1009.9
20260503213752 78 264 1.0 2.0 0.00 0.00 0.00 46 1009.9
20260503213638 78 268 0.0 2.0 0.00 0.00 0.00 48 1010.0
20260503213535 78 268 1.0 2.0 0.00 0.00 0.00 48 1010.0
20260503213436 78 268 1.0 2.0 0.00 0.00 0.00 49 1010.0
20260503213330 78 268 1.0 2.0 0.00 0.00 0.00 49 1010.0
20260503213231 78 268 0.0 2.0 0.00 0.00 0.00 51 1010.1
20260503213127 78 268 0.0 2.0 0.00 0.00 0.00 51 1010.1
20260503213024 78 268 1.0 2.0 0.00 0.00 0.00 51 1010.2
20260503212922 78 268 1.0 2.0 0.00 0.00 0.00 51 1010.2
20260503212809 77 295 0.0 1.0 0.00 0.00 0.00 53 1010.2
20260503212705 77 295 0.0 1.0 0.00 0.00 0.00 51 1010.3
20260503212605 77 295 0.0 2.0 0.00 0.00 0.00 51 1010.2
20260503212504 77 295 0.0 2.0 0.00 0.00 0.00 52 1010.4
20260503212406 77 295 0.0 2.0 0.00 0.00 0.00 52 1010.4
20260503212305 78 295 0.0 2.0 0.00 0.00 0.00 52 1010.4
20260503212204 78 327 0.0 2.0 0.00 0.00 0.00 50 1010.4
20260503212104 78 327 0.0 2.0 0.00 0.00 0.00 47 1010.4
20260503212005 78 329 0.0 2.0 0.00 0.00 0.00 45 1010.4
20260503211904 78 329 0.0 2.0 0.00 0.00 0.00 45 1010.5
20260503211804 79 329 1.0 2.0 0.00 0.00 0.00 44 1010.4
20260503211705 79 327 1.0 2.0 0.00 0.00 0.00 46 1010.5
20260503211605 79 327 1.0 2.0 0.00 0.00 0.00 50 1010.6
20260503211505 79 147 0.0 2.0 0.00 0.00 0.00 50 1010.7
20260503211404 79 148 0.0 2.0 0.00 0.00 0.00 48 1010.7
20260503211304 79 148 0.0 2.0 0.00 0.00 0.00 49 1010.6
20260503211205 79 148 1.0 3.0 0.00 0.00 0.00 48 1010.6
20260503211106 79 148 1.0 3.0 0.00 0.00 0.00 46 1010.6
20260503211005 79 148 1.0 3.0 0.00 0.00 0.00 46 1010.6
20260503210904 79 162 1.0 3.0 0.00 0.00 0.00 42 1010.7
20260503210806 78 162 1.0 3.0 0.00 0.00 0.00 42 1010.7
20260503210704 78 162 0.0 3.0 0.00 0.00 0.00 44 1010.7
20260503210605 78 166 1.0 3.0 0.00 0.00 0.00 45 1010.6
20260503210504 78 165 1.0 3.0 0.00 0.00 0.00 45 1010.7
20260503210405 79 165 1.0 3.0 0.00 0.00 0.00 45 1010.7
20260503210304 79 164 1.0 3.0 0.00 0.00 0.00 45 1010.8
20260503210204 79 142 1.0 2.0 0.00 0.00 0.00 45 1010.8
20260503210104 79 247 0.0 2.0 0.00 0.00 0.00 44 1010.7
20260503210005 79 247 0.0 2.0 0.00 0.00 0.00 44 1010.7
20260503205904 79 247 1.0 2.0 0.00 0.00 0.00 44 1010.7
20260503205804 79 247 1.0 2.0 0.00 0.00 0.00 48 1010.7
20260503205705 79 247 2.0 2.0 0.00 0.00 0.00 46 1010.8
20260503205604 79 206 1.0 2.0 0.00 0.00 0.00 47 1010.8
20260503205504 79 333 0.0 2.0 0.00 0.00 0.00 47 1010.8
20260503205405 79 331 0.0 2.0 0.00 0.00 0.00 47 1010.7
20260503205304 79 331 1.0 2.0 0.00 0.00 0.00 47 1010.7
20260503205204 79 331 1.0 2.0 0.00 0.00 0.00 47 1010.8
20260503205103 79 330 1.0 2.0 0.00 0.00 0.00 49 1010.8
20260503205005 79 330 1.0 2.0 0.00 0.00 0.00 45 1010.8
20260503204904 79 164 1.0 2.0 0.00 0.00 0.00 45 1010.8
20260503204803 79 158 1.0 2.0 0.00 0.00 0.00 47 1010.8
20260503204704 79 137 1.0 2.0 0.00 0.00 0.00 47 1010.9
20260503204603 79 137 1.0 2.0 0.00 0.00 0.00 47 1010.9
20260503204504 79 223 1.0 2.0 0.00 0.00 0.00 47 1010.9
20260503204404 79 235 1.0 2.0 0.00 0.00 0.00 48 1010.9
20260503204303 78 234 1.0 2.0 0.00 0.00 0.00 50 1010.9
20260503204204 78 250 1.0 2.0 0.00 0.00 0.00 45 1011.0
20260503204104 78 250 1.0 2.0 0.00 0.00 0.00 49 1011.0
20260503204004 78 250 1.0 2.0 0.00 0.00 0.00 47 1011.0
20260503203903 78 259 1.0 2.0 0.00 0.00 0.00 47 1011.0
20260503203804 78 258 1.0 3.0 0.00 0.00 0.00 50 1011.1
20260503203703 78 259 1.0 3.0 0.00 0.00 0.00 50 1011.1
20260503203604 78 327 1.0 3.0 0.00 0.00 0.00 45 1011.1
20260503203503 78 0 1.0 3.0 0.00 0.00 0.00 45 1011.1
20260503203404 78 0 1.0 3.0 0.00 0.00 0.00 48 1011.1
20260503203304 78 0 1.0 3.0 0.00 0.00 0.00 48 1011.2
20260503203203 78 0 1.0 3.0 0.00 0.00 0.00 48 1011.2
20260503203103 78 0 1.0 3.0 0.00 0.00 0.00 48 1011.3
20260503203003 78 0 1.0 3.0 0.00 0.00 0.00 45 1011.3
20260503202904 78 0 1.0 3.0 0.00 0.00 0.00 45 1011.4
20260503202803 78 345 1.0 2.0 0.00 0.00 0.00 45 1011.3
20260503202703 77 124 1.0 2.0 0.00 0.00 0.00 45 1011.4
20260503202604 77 220 1.0 2.0 0.00 0.00 0.00 45 1011.3
20260503202503 77 220 1.0 2.0 0.00 0.00 0.00 53 1011.3
20260503202404 77 219 1.0 2.0 0.00 0.00 0.00 53 1011.3
20260503202304 77 109 0.0 2.0 0.00 0.00 0.00 50 1011.3
20260503202203 76 109 0.0 2.0 0.00 0.00 0.00 50 1011.3
20260503202104 76 109 0.0 2.0 0.00 0.00 0.00 50 1011.3
20260503202004 76 109 0.0 2.0 0.00 0.00 0.00 50 1011.3
20260503201903 76 109 1.0 2.0 0.00 0.00 0.00 50 1011.3
20260503201803 77 109 1.0 2.0 0.00 0.00 0.00 51 1011.4
20260503201703 79 109 1.0 2.0 0.00 0.00 0.00 47 1011.4
20260503201602 79 114 0.0 2.0 0.00 0.00 0.00 47 1011.4
20260503201504 79 114 0.0 2.0 0.00 0.00 0.00 47 1011.4
20260503201404 79 114 0.0 2.0 0.00 0.00 0.00 47 1011.4
20260503201303 80 114 0.0 2.0 0.00 0.00 0.00 49 1011.5
20260503201203 80 114 0.0 2.0 0.00 0.00 0.00 49 1011.5
20260503201103 80 114 1.0 2.0 0.00 0.00 0.00 51 1011.6
20260503201004 80 114 1.0 3.0 0.00 0.00 0.00 51 1011.5
20260503200902 80 114 1.0 3.0 0.00 0.00 0.00 46 1011.6
20260503200805 80 118 1.0 3.0 0.00 0.00 0.00 46 1011.6
20260503200656 79 351 0.0 3.0 0.00 0.00 0.00 46 1011.6
20260503200552 79 336 1.0 3.0 0.00 0.00 0.00 46 1011.6
20260503200450 79 336 0.0 3.0 0.00 0.00 0.00 46 1011.6
20260503200351 79 345 0.0 3.0 0.00 0.00 0.00 48 1011.6
20260503200242 79 345 1.0 3.0 0.00 0.00 0.00 49 1011.6
20260503200139 79 345 1.0 3.0 0.00 0.00 0.00 45 1011.7
20260503200034 79 345 1.0 3.0 0.00 0.00 0.00 45 1011.7
20260503195933 79 341 1.0 3.0 0.00 0.00 0.00 47 1011.8
20260503195830 79 341 1.0 3.0 0.00 0.00 0.00 47 1011.7
20260503195732 79 353 0.0 3.0 0.00 0.00 0.00 47 1011.8
20260503195632 79 350 0.0 3.0 0.00 0.00 0.00 45 1011.8
20260503195532 80 350 1.0 3.0 0.00 0.00 0.00 45 1011.8
20260503195425 80 350 1.0 3.0 0.00 0.00 0.00 50 1011.9
20260503195323 80 247 1.0 3.0 0.00 0.00 0.00 52 1011.9
20260503195224 80 268 0.0 3.0 0.00 0.00 0.00 51 1011.9
20260503195112 79 324 0.0 3.0 0.00 0.00 0.00 48 1011.9
20260503195005 79 324 1.0 3.0 0.00 0.00 0.00 48 1011.9
20260503194903 79 324 1.0 3.0 0.00 0.00 0.00 49 1011.9
20260503194802 79 326 2.0 3.0 0.00 0.00 0.00 49 1011.9
20260503194704 79 224 1.0 3.0 0.00 0.00 0.00 48 1012.0
20260503194557 79 261 1.0 3.0 0.00 0.00 0.00 46 1012.0
20260503194456 79 116 1.0 3.0 0.00 0.00 0.00 50 1012.0
20260503194355 79 118 1.0 3.0 0.00 0.00 0.00 51 1012.0
20260503194254 78 118 1.0 3.0 0.00 0.00 0.00 51 1011.9
20260503194152 78 299 1.0 3.0 0.00 0.00 0.00 47 1012.0
20260503194051 78 298 1.0 3.0 0.00 0.00 0.00 51 1012.0
20260503193932 77 298 1.0 3.0 0.00 0.00 0.00 51 1012.1
20260503193829 77 298 1.0 3.0 0.00 0.00 0.00 50 1012.0
20260503193723 77 298 1.0 3.0 0.00 0.00 0.00 59 1012.1
20260503193621 76 272 0.0 2.0 0.00 0.00 0.00 55 1012.1
20260503193511 76 275 0.0 2.0 0.00 0.00 0.00 55 1012.1
20260503193408 77 275 0.0 2.0 0.00 0.00 0.00 57 1012.1
20260503193303 77 275 0.0 2.0 0.00 0.00 0.00 57 1012.2
20260503193203 77 275 0.0 3.0 0.00 0.00 0.00 57 1012.2
20260503193104 77 275 1.0 3.0 0.00 0.00 0.00 56 1012.2
20260503193003 77 275 1.0 3.0 0.00 0.00 0.00 52 1012.2
20260503192902 77 275 0.0 3.0 0.00 0.00 0.00 52 1012.2
20260503192803 78 275 1.0 3.0 0.00 0.00 0.00 52 1012.2
20260503192702 78 275 1.0 3.0 0.00 0.00 0.00 47 1012.2
20260503192604 78 275 0.0 3.0 0.00 0.00 0.00 47 1012.2
20260503192503 78 275 0.0 3.0 0.00 0.00 0.00 47 1012.2
20260503192402 78 275 1.0 3.0 0.00 0.00 0.00 47 1012.3
20260503192305 79 285 2.0 3.0 0.00 0.00 0.00 44 1012.2
20260503192204 79 286 2.0 2.0 0.00 0.00 0.00 44 1012.2
20260503192102 79 286 1.0 2.0 0.00 0.00 0.00 44 1012.3
20260503192003 79 180 0.0 2.0 0.00 0.00 0.00 44 1012.3
20260503191902 79 169 0.0 2.0 0.00 0.00 0.00 49 1012.3
20260503191804 79 169 0.0 2.0 0.00 0.00 0.00 49 1012.3
20260503191703 79 169 1.0 2.0 0.00 0.00 0.00 49 1012.3
20260503191604 79 169 1.0 2.0 0.00 0.00 0.00 49 1012.4
20260503191503 79 169 1.0 2.0 0.00 0.00 0.00 52 1012.4
20260503191401 78 169 1.0 2.0 0.00 0.00 0.00 47 1012.4
20260503191303 78 169 1.0 2.0 0.00 0.00 0.00 44 1012.4
20260503191157 79 169 1.0 2.0 0.00 0.00 0.00 45 1012.5
20260503191050 79 168 0.0 2.0 0.00 0.00 0.00 45 1012.5
20260503190946 79 214 1.0 2.0 0.00 0.00 0.00 45 1012.6
20260503190848 79 214 2.0 2.0 0.00 0.00 0.00 45 1012.6
20260503190744 80 219 1.0 2.0 0.00 0.00 0.00 49 1012.6
20260503190645 80 327 1.0 2.0 0.00 0.00 0.00 49 1012.6
20260503190541 80 154 0.0 2.0 0.00 0.00 0.00 50 1012.6
20260503190439 80 154 0.0 2.0 0.00 0.00 0.00 49 1012.6
20260503190340 80 152 1.0 3.0 0.00 0.00 0.00 49 1012.6
20260503190238 80 152 0.0 3.0 0.00 0.00 0.00 49 1012.6
20260503190138 79 152 0.0 3.0 0.00 0.00 0.00 49 1012.6
20260503190033 79 152 1.0 3.0 0.00 0.00 0.00 50 1012.7
20260503185926 79 248 1.0 3.0 0.00 0.00 0.00 47 1012.7
20260503185822 79 228 0.0 3.0 0.00 0.00 0.00 46 1012.7
20260503185721 79 142 0.0 3.0 0.00 0.00 0.00 46 1012.6
20260503185618 79 142 1.0 3.0 0.00 0.00 0.00 46 1012.6
20260503185514 79 144 2.0 3.0 0.00 0.00 0.00 48 1012.7
20260503185410 79 144 1.0 3.0 0.00 0.00 0.00 49 1012.7
20260503185311 79 259 0.0 2.0 0.00 0.00 0.00 50 1012.6
20260503185203 79 259 0.0 2.0 0.00 0.00 0.00 47 1012.7
20260503185103 79 259 0.0 2.0 0.00 0.00 0.00 47 1012.7
20260503185004 79 259 1.0 2.0 0.00 0.00 0.00 52 1012.7
20260503184902 79 283 1.0 2.0 0.00 0.00 0.00 52 1012.7
20260503184803 79 283 1.0 2.0 0.00 0.00 0.00 52 1012.8
20260503184702 79 303 1.0 2.0 0.00 0.00 0.00 52 1012.7
20260503184604 78 21 1.0 2.0 0.00 0.00 0.00 52 1012.7
20260503184503 78 17 1.0 2.0 0.00 0.00 0.00 49 1012.8
20260503184402 78 3 0.0 2.0 0.00 0.00 0.00 49 1012.7
20260503184302 78 4 0.0 3.0 0.00 0.00 0.00 49 1012.8
20260503184202 78 3 0.0 3.0 0.00 0.00 0.00 49 1012.8
20260503184103 78 0 1.0 3.0 0.00 0.00 0.00 50 1012.8
20260503184003 78 0 1.0 3.0 0.00 0.00 0.00 50 1012.8
20260503183903 78 56 1.0 3.0 0.00 0.00 0.00 49 1012.8
20260503183802 78 56 1.0 3.0 0.00 0.00 0.00 51 1012.8
20260503183701 78 240 0.0 3.0 0.00 0.00 0.00 49 1012.9
20260503183601 78 240 1.0 3.0 0.00 0.00 0.00 49 1012.9
20260503183500 79 240 2.0 3.0 0.00 0.00 0.00 52 1012.8
20260503183401 79 353 2.0 3.0 0.00 0.00 0.00 52 1012.9
20260503183302 79 278 2.0 3.0 0.00 0.00 0.00 52 1012.8
20260503183201 79 268 2.0 2.0 0.00 0.00 0.00 55 1012.9
20260503183101 78 317 1.0 3.0 0.00 0.00 0.00 52 1012.9
20260503183001 78 1 1.0 3.0 0.00 0.00 0.00 52 1013.0
20260503182901 78 0 2.0 3.0 0.00 0.00 0.00 52 1012.9
20260503182801 78 238 2.0 3.0 0.00 0.00 0.00 52 1012.9
20260503182702 78 240 2.0 3.0 0.00 0.00 0.00 48 1012.9
20260503182600 78 228 1.0 3.0 0.00 0.00 0.00 46 1013.0
20260503182502 78 317 0.0 4.0 0.00 0.00 0.00 49 1013.0
20260503182401 78 321 0.0 4.0 0.00 0.00 0.00 49 1013.0
20260503182304 79 321 1.0 4.0 0.00 0.00 0.00 55 1013.0
20260503182200 79 321 1.0 4.0 0.00 0.00 0.00 55 1013.0
20260503182101 79 82 1.0 4.0 0.00 0.00 0.00 55 1013.1
20260503182000 79 142 2.0 4.0 0.00 0.00 0.00 55 1013.2
20260503181902 79 227 2.0 4.0 0.00 0.00 0.00 55 1013.2
20260503181800 78 220 1.0 4.0 0.00 0.00 0.00 48 1013.1
20260503181701 78 293 1.0 4.0 0.00 0.00 0.00 48 1013.1
20260503181600 78 296 1.0 4.0 0.00 0.00 0.00 48 1013.1
20260503181500 78 203 1.0 2.0 0.00 0.00 0.00 48 1013.2
20260503181401 79 203 1.0 2.0 0.00 0.00 0.00 52 1013.1
20260503181301 79 90 0.0 2.0 0.00 0.00 0.00 52 1013.2
20260503181200 78 89 0.0 2.0 0.00 0.00 0.00 48 1013.3
20260503181100 78 89 1.0 2.0 0.00 0.00 0.00 48 1013.2
20260503181000 78 89 1.0 2.0 0.00 0.00 0.00 48 1013.3
20260503180902 78 37 1.0 2.0 0.00 0.00 0.00 54 1013.3
20260503180800 79 299 1.0 2.0 0.00 0.00 0.00 54 1013.3
20260503180700 78 299 1.0 2.0 0.00 0.00 0.00 50 1013.3
20260503180600 78 299 1.0 2.0 0.00 0.00 0.00 50 1013.3
20260503180501 78 299 0.0 2.0 0.00 0.00 0.00 49 1013.4
20260503180400 78 282 1.0 2.0 0.00 0.00 0.00 49 1013.4
20260503180301 79 285 1.0 3.0 0.00 0.00 0.00 53 1013.4
20260503180200 78 285 0.0 3.0 0.00 0.00 0.00 53 1013.4
20260503180100 78 285 0.0 3.0 0.00 0.00 0.00 52 1013.5
20260503180000 78 240 1.0 3.0 0.00 0.00 0.00 52 1013.5
20260503175900 77 248 1.0 3.0 0.00 0.00 0.00 52 1013.5
20260503175802 77 142 1.0 3.0 0.00 0.00 0.00 50 1013.6
20260503175700 77 142 1.0 3.0 0.00 0.00 0.00 50 1013.6
20260503175601 78 142 1.0 3.0 0.00 0.00 0.00 50 1013.6
20260503175500 78 87 1.0 3.0 0.00 0.00 0.00 50 1013.6
20260503175400 78 63 1.0 3.0 0.00 0.00 0.00 52 1013.6
20260503175300 78 199 0.0 2.0 0.00 0.00 0.00 52 1013.6
20260503175201 78 199 0.0 4.0 0.00 0.00 0.00 48 1013.7
20260503175101 78 202 0.0 4.0 0.00 0.00 0.00 48 1013.6
20260503174959 78 202 0.0 4.0 0.00 0.00 0.00 48 1013.6
20260503174901 78 202 0.0 4.0 0.00 0.00 0.00 53 1013.7
20260503174800 78 202 1.0 4.0 0.00 0.00 0.00 56 1013.7
20260503174659 78 204 1.0 4.0 0.00 0.00 0.00 56 1013.8
20260503174600 78 100 1.0 4.0 0.00 0.00 0.00 56 1013.7
20260503174500 78 99 1.0 4.0 0.00 0.00 0.00 56 1013.8
20260503174359 79 216 2.0 4.0 0.00 0.00 0.00 56 1013.8
20260503174300 79 329 1.0 4.0 0.00 0.00 0.00 56 1013.8
20260503174159 79 133 1.0 3.0 0.00 0.00 0.00 56 1013.9
20260503174100 78 133 1.0 6.0 0.00 0.00 0.00 54 1013.9
20260503173959 78 133 1.0 6.0 0.00 0.00 0.00 54 1013.9
20260503173900 78 133 1.0 6.0 0.00 0.00 0.00 54 1013.9
20260503173800 78 133 1.0 6.0 0.00 0.00 0.00 54 1014.0
20260503173700 78 133 0.0 6.0 0.00 0.00 0.00 54 1014.0
20260503173559 77 134 0.0 6.0 0.00 0.00 0.00 53 1014.0
20260503173500 77 135 1.0 6.0 0.00 0.00 0.00 53 1014.0
20260503173401 76 130 1.0 6.0 0.00 0.00 0.00 53 1014.0
20260503173300 76 130 2.0 6.0 0.00 0.00 0.00 53 1014.0
20260503173159 76 130 2.0 6.0 0.00 0.00 0.00 52 1014.1
20260503173059 76 183 2.0 3.0 0.00 0.00 0.00 52 1014.0
20260503173000 76 195 2.0 3.0 0.00 0.00 0.00 52 1014.1
20260503172901 77 171 2.0 3.0 0.00 0.00 0.00 52 1014.2
20260503172759 77 154 1.0 3.0 0.00 0.00 0.00 50 1014.2
20260503172700 77 171 1.0 3.0 0.00 0.00 0.00 53 1014.2
20260503172601 77 168 1.0 3.0 0.00 0.00 0.00 53 1014.2
20260503172459 77 210 1.0 3.0 0.00 0.00 0.00 54 1014.2
20260503172400 77 162 1.0 3.0 0.00 0.00 0.00 53 1014.2
20260503172259 77 162 2.0 3.0 0.00 0.00 0.00 49 1014.3
20260503172200 78 16 1.0 3.0 0.00 0.00 0.00 57 1014.2
20260503172059 77 220 1.0 3.0 0.00 0.00 0.00 52 1014.2
20260503172000 77 220 1.0 3.0 0.00 0.00 0.00 52 1014.3
20260503171859 77 144 1.0 3.0 0.00 0.00 0.00 52 1014.2
20260503171759 78 144 0.0 3.0 0.00 0.00 0.00 52 1014.3
20260503171700 77 147 0.0 3.0 0.00 0.00 0.00 52 1014.3
20260503171600 77 147 1.0 3.0 0.00 0.00 0.00 52 1014.4
20260503171459 77 219 1.0 3.0 0.00 0.00 0.00 52 1014.3
20260503171400 78 223 2.0 3.0 0.00 0.00 0.00 56 1014.4
20260503171258 78 212 1.0 3.0 0.00 0.00 0.00 56 1014.4
20260503171158 77 186 1.0 3.0 0.00 0.00 0.00 53 1014.4
20260503171059 77 186 1.0 3.0 0.00 0.00 0.00 53 1014.4
20260503171000 77 193 1.0 3.0 0.00 0.00 0.00 54 1014.4
20260503170901 77 261 2.0 3.0 0.00 0.00 0.00 54 1014.4
20260503170758 77 0 2.0 3.0 0.00 0.00 0.00 55 1014.4
20260503170701 77 188 1.0 2.0 0.00 0.00 0.00 55 1014.4
20260503170559 77 196 1.0 2.0 0.00 0.00 0.00 54 1014.5
20260503170458 77 197 1.0 2.0 0.00 0.00 0.00 54 1014.5
20260503170400 77 197 0.0 2.0 0.00 0.00 0.00 54 1014.4
20260503170300 77 197 1.0 2.0 0.00 0.00 0.00 54 1014.4
20260503170200 77 197 0.0 2.0 0.00 0.00 0.00 54 1014.5
20260503160159 74 266 1.0 2.0 0.00 0.00 0.00 57 1014.6
20260503150929 71 278 1.0 2.0 0.00 0.00 0.00 68 1014.3
20260503150825 71 276 0.0 2.0 0.00 0.00 0.00 68 1014.3
20260503150723 71 276 0.0 1.0 0.00 0.00 0.00 71 1014.3
20260503150619 71 276 1.0 1.0 0.00 0.00 0.00 71 1014.4
20260503150517 71 292 0.0 1.0 0.00 0.00 0.00 71 1014.3
20260503150414 71 202 0.0 1.0 0.00 0.00 0.00 72 1014.3
20260503150311 71 202 0.0 1.0 0.00 0.00 0.00 72 1014.3
20260503150205 71 202 0.0 1.0 0.00 0.00 0.00 72 1014.3
20260503150106 71 202 0.0 1.0 0.00 0.00 0.00 72 1014.3
20260503140256 57 298 0.0 1.0 0.00 0.00 0.00 91 1014.0
20260503140154 57 298 0.0 1.0 0.00 0.00 0.00 91 1014.0
20260503131353 52 86 0.0 0.0 0.00 0.00 0.00 90 1013.7
20260503131255 52 86 0.0 0.0 0.00 0.00 0.00 90 1013.7
20260503131155 52 86 0.0 0.0 0.00 0.00 0.00 90 1013.7
20260503131055 52 86 0.0 0.0 0.00 0.00 0.00 90 1013.7
20260503130954 52 86 0.0 0.0 0.00 0.00 0.00 90 1013.7
20260503130854 51 86 0.0 0.0 0.00 0.00 0.00 90 1013.6
20260503130755 51 86 0.0 0.0 0.00 0.00 0.00 89 1013.7
20260503130654 51 86 0.0 0.0 0.00 0.00 0.00 89 1013.6
20260503130554 51 86 0.0 0.0 0.00 0.00 0.00 89 1013.7
20260503130454 51 86 0.0 0.0 0.00 0.00 0.00 89 1013.7
20260503130354 51 86 0.0 0.0 0.00 0.00 0.00 89 1013.6
20260503130255 51 86 0.0 0.0 0.00 0.00 0.00 89 1013.6
20260503130154 51 86 0.0 0.0 0.00 0.00 0.00 89 1013.6
20260503120151 50 86 0.0 0.0 0.00 0.00 0.00 89 1013.1
20260503110729 51 86 0.0 0.0 0.00 0.00 0.00 89 1012.8
20260503110623 51 86 0.0 0.0 0.00 0.00 0.00 89 1012.8
20260503110523 51 86 0.0 0.0 0.00 0.00 0.00 89 1012.8
20260503110423 51 86 0.0 0.0 0.00 0.00 0.00 89 1012.8
20260503110324 51 86 0.0 0.0 0.00 0.00 0.00 89 1012.7
20260503110218 51 86 0.0 0.0 0.00 0.00 0.00 89 1012.7
20260503110116 51 86 0.0 0.0 0.00 0.00 0.00 89 1012.7
20260503100251 52 86 0.0 0.0 0.00 0.00 0.00 89 1012.5
20260503100150 52 86 0.0 0.0 0.00 0.00 0.00 89 1012.5
20260503090448 53 86 0.0 0.0 0.00 0.00 0.00 89 1012.2
20260503090349 53 86 0.0 0.0 0.00 0.00 0.00 89 1012.3
20260503090247 53 86 0.0 0.0 0.00 0.00 0.00 89 1012.2
20260503090149 53 86 0.0 0.0 0.00 0.00 0.00 89 1012.2
20260503081548 53 86 0.0 0.0 0.00 0.00 0.00 89 1012.3
20260503081446 53 86 0.0 0.0 0.00 0.00 0.00 89 1012.3
20260503081347 53 86 0.0 0.0 0.00 0.00 0.00 89 1012.4
20260503081249 53 86 0.0 0.0 0.00 0.00 0.00 89 1012.3
20260503081149 53 86 0.0 0.0 0.00 0.00 0.00 89 1012.3
20260503081047 53 86 0.0 0.0 0.00 0.00 0.00 89 1012.3
20260503080946 53 86 0.0 0.0 0.00 0.00 0.00 89 1012.3
20260503080846 53 86 0.0 0.0 0.00 0.00 0.00 89 1012.3
20260503080747 53 86 0.0 0.0 0.00 0.00 0.00 89 1012.3
20260503080647 53 86 0.0 0.0 0.00 0.00 0.00 89 1012.4
20260503080548 53 86 0.0 0.0 0.00 0.00 0.00 89 1012.4
20260503080446 53 86 0.0 0.0 0.00 0.00 0.00 89 1012.4
20260503080347 53 86 0.0 0.0 0.00 0.00 0.00 89 1012.4
20260503080247 53 86 0.0 0.0 0.00 0.00 0.00 89 1012.4
20260503080147 53 86 0.0 0.0 0.00 0.00 0.00 89 1012.4
20260503072847 54 86 0.0 0.0 0.00 0.00 0.00 89 1012.5
20260503072747 54 86 0.0 0.0 0.00 0.00 0.00 89 1012.4
20260503072647 54 86 0.0 0.0 0.00 0.00 0.00 89 1012.5
20260503072546 54 86 0.0 0.0 0.00 0.00 0.00 89 1012.4
20260503072447 54 86 0.0 0.0 0.00 0.00 0.00 89 1012.4
20260503072346 54 86 0.0 0.0 0.00 0.00 0.00 89 1012.4
20260503072244 54 86 0.0 0.0 0.00 0.00 0.00 89 1012.5
20260503072145 54 86 0.0 0.0 0.00 0.00 0.00 89 1012.5
20260503072043 54 86 0.0 0.0 0.00 0.00 0.00 89 1012.5
20260503071939 54 86 0.0 0.0 0.00 0.00 0.00 89 1012.5
20260503071838 54 86 0.0 0.0 0.00 0.00 0.00 89 1012.5
20260503071731 54 86 0.0 0.0 0.00 0.00 0.00 89 1012.5
20260503071631 54 86 0.0 0.0 0.00 0.00 0.00 89 1012.6
20260503071531 54 86 0.0 0.0 0.00 0.00 0.00 89 1012.5
20260503071432 54 86 0.0 0.0 0.00 0.00 0.00 89 1012.5
20260503071331 54 86 0.0 0.0 0.00 0.00 0.00 89 1012.5
20260503071231 54 86 0.0 0.0 0.00 0.00 0.00 89 1012.5
20260503071132 54 86 0.0 0.0 0.00 0.00 0.00 89 1012.5
20260503071031 54 86 0.0 0.0 0.00 0.00 0.00 89 1012.5
20260503070932 54 86 0.0 0.0 0.00 0.00 0.00 89 1012.5
20260503070820 54 86 0.0 0.0 0.00 0.00 0.00 89 1012.5
20260503070719 54 86 0.0 0.0 0.00 0.00 0.00 89 1012.5
20260503070619 54 86 0.0 0.0 0.00 0.00 0.00 89 1012.5
20260503070520 54 86 0.0 0.0 0.00 0.00 0.00 89 1012.5
20260503070413 54 86 0.0 0.0 0.00 0.00 0.00 89 1012.5
20260503070306 54 86 0.0 0.0 0.00 0.00 0.00 89 1012.5
20260503070202 54 86 0.0 0.0 0.00 0.00 0.00 89 1012.6
20260503070103 54 86 0.0 0.0 0.00 0.00 0.00 89 1012.6
20260503060309 55 86 0.0 0.0 0.00 0.00 0.00 89 1012.5
20260503060206 55 86 0.0 0.0 0.00 0.00 0.00 89 1012.5
20260503060105 55 86 0.0 0.0 0.00 0.00 0.00 89 1012.6
20260503055102 55 86 0.0 0.0 0.00 0.00 0.00 89 1012.6
20260503055002 55 86 0.0 0.0 0.00 0.00 0.00 89 1012.7
20260503054902 55 86 0.0 0.0 0.00 0.00 0.00 89 1012.6
20260503054803 55 86 0.0 0.0 0.00 0.00 0.00 89 1012.6
20260503054703 55 86 0.0 0.0 0.00 0.00 0.00 89 1012.6
20260503054604 55 86 0.0 0.0 0.00 0.00 0.00 89 1012.6
20260503054502 55 86 0.0 0.0 0.00 0.00 0.00 89 1012.6
20260503054402 55 86 0.0 0.0 0.00 0.00 0.00 89 1012.6
20260503054302 55 86 0.0 0.0 0.00 0.00 0.00 89 1012.6
20260503054203 55 86 0.0 0.0 0.00 0.00 0.00 89 1012.6
20260503054102 55 86 0.0 0.0 0.00 0.00 0.00 89 1012.7
20260503054003 55 86 0.0 0.0 0.00 0.00 0.00 89 1012.8
20260503053902 55 86 0.0 0.0 0.00 0.00 0.00 89 1012.7
20260503053802 55 86 0.0 0.0 0.00 0.00 0.00 89 1012.7
20260503053702 55 86 0.0 0.0 0.00 0.00 0.00 89 1012.7
20260503053602 55 86 0.0 0.0 0.00 0.00 0.00 89 1012.7
20260503053503 55 86 0.0 0.0 0.00 0.00 0.00 89 1012.6
20260503053403 55 86 0.0 0.0 0.00 0.00 0.00 89 1012.6
20260503053302 55 86 0.0 0.0 0.00 0.00 0.00 89 1012.7
20260503053202 55 86 0.0 0.0 0.00 0.00 0.00 89 1012.7
20260503053102 55 86 0.0 0.0 0.00 0.00 0.00 89 1012.7
20260503053003 55 86 0.0 0.0 0.00 0.00 0.00 89 1012.7
20260503052903 55 86 0.0 0.0 0.00 0.00 0.00 89 1012.7
20260503052803 55 86 0.0 0.0 0.00 0.00 0.00 89 1012.6
20260503052702 55 86 0.0 0.0 0.00 0.00 0.00 89 1012.7
20260503052602 55 86 0.0 0.0 0.00 0.00 0.00 89 1012.6
20260503052502 55 86 0.0 0.0 0.00 0.00 0.00 89 1012.6
20260503052403 55 86 0.0 0.0 0.00 0.00 0.00 89 1012.6
20260503052305 55 86 0.0 0.0 0.00 0.00 0.00 89 1012.5
20260503052203 55 86 0.0 0.0 0.00 0.00 0.00 89 1012.5
20260503052103 55 86 0.0 0.0 0.00 0.00 0.00 89 1012.5
20260503052005 55 86 0.0 0.0 0.00 0.00 0.00 89 1012.5
20260503051902 55 86 0.0 0.0 0.00 0.00 0.00 89 1012.5
20260503051802 55 86 0.0 0.0 0.00 0.00 0.00 89 1012.4
20260503051702 55 86 0.0 0.0 0.00 0.00 0.00 89 1012.4
20260503051602 55 86 0.0 0.0 0.00 0.00 0.00 89 1012.4
20260503051503 55 86 0.0 0.0 0.00 0.00 0.00 89 1012.3
20260503051402 55 86 0.0 0.0 0.00 0.00 0.00 89 1012.4
20260503051303 55 86 0.0 0.0 0.00 0.00 0.00 89 1012.3
20260503051203 55 86 0.0 0.0 0.00 0.00 0.00 89 1012.3
20260503051103 55 86 0.0 0.0 0.00 0.00 0.00 89 1012.3
20260503051002 56 86 0.0 0.0 0.00 0.00 0.00 89 1012.3
20260503050902 56 86 0.0 0.0 0.00 0.00 0.00 89 1012.3
20260503050802 56 86 0.0 0.0 0.00 0.00 0.00 89 1012.4
20260503050703 56 86 0.0 0.0 0.00 0.00 0.00 89 1012.4
20260503050602 56 86 0.0 0.0 0.00 0.00 0.00 89 1012.5
20260503050502 56 86 0.0 0.0 0.00 0.00 0.00 89 1012.5
20260503050402 56 86 0.0 0.0 0.00 0.00 0.00 89 1012.4
20260503050303 56 86 0.0 0.0 0.00 0.00 0.00 89 1012.4
20260503050202 56 86 0.0 0.0 0.00 0.00 0.00 89 1012.5
20260503050002 56 86 0.0 0.0 0.00 0.00 0.00 89 1012.5
20260503045902 56 86 0.0 1.0 0.00 0.00 0.00 89 1012.4
20260503045803 56 86 0.0 1.0 0.00 0.00 0.00 89 1012.5
20260503045701 56 86 0.0 1.0 0.00 0.00 0.00 89 1012.5
20260503045601 56 86 0.0 1.0 0.00 0.00 0.00 89 1012.6
20260503045502 56 86 0.0 1.0 0.00 0.00 0.00 89 1012.5
20260503045402 56 86 0.0 1.0 0.00 0.00 0.00 89 1012.5
20260503045302 56 86 0.0 1.0 0.00 0.00 0.00 89 1012.5
20260503045202 56 86 0.0 1.0 0.00 0.00 0.00 89 1012.5
20260503045103 56 86 0.0 1.0 0.00 0.00 0.00 89 1012.3
20260503045002 56 86 0.0 1.0 0.00 0.00 0.00 89 1012.4
20260503044902 56 86 0.0 0.0 0.00 0.00 0.00 89 1012.4
20260503044803 56 86 0.0 0.0 0.00 0.00 0.00 89 1012.3
20260503044702 56 86 0.0 0.0 0.00 0.00 0.00 89 1012.3
20260503044602 56 86 0.0 0.0 0.00 0.00 0.00 89 1012.3
20260503044502 56 86 0.0 0.0 0.00 0.00 0.00 89 1012.3
20260503044402 56 86 0.0 0.0 0.00 0.00 0.00 89 1012.3
20260503044303 56 86 0.0 0.0 0.00 0.00 0.00 89 1012.3
20260503044203 56 86 0.0 0.0 0.00 0.00 0.00 89 1012.3
20260503044102 56 86 0.0 0.0 0.00 0.00 0.00 89 1012.3
20260503044003 56 86 0.0 0.0 0.00 0.00 0.00 89 1012.3
20260503043903 56 86 0.0 0.0 0.00 0.00 0.00 89 1012.2
20260503043802 56 86 0.0 0.0 0.00 0.00 0.00 89 1012.3
20260503043703 56 86 0.0 0.0 0.00 0.00 0.00 89 1012.3
20260503043602 56 86 0.0 0.0 0.00 0.00 0.00 89 1012.3
20260503043503 56 86 0.0 0.0 0.00 0.00 0.00 89 1012.3
20260503043403 56 86 0.0 0.0 0.00 0.00 0.00 89 1012.3
20260503043304 56 86 0.0 0.0 0.00 0.00 0.00 89 1012.3
20260503043202 56 86 0.0 0.0 0.00 0.00 0.00 89 1012.3
20260503043104 56 86 0.0 0.0 0.00 0.00 0.00 89 1012.3
20260503043003 56 86 0.0 0.0 0.00 0.00 0.00 89 1012.3
20260503042904 56 86 0.0 0.0 0.00 0.00 0.00 89 1012.3
20260503042804 56 86 0.0 0.0 0.00 0.00 0.00 89 1012.3
20260503042702 56 86 0.0 0.0 0.00 0.00 0.00 89 1012.3
20260503042601 56 86 0.0 0.0 0.00 0.00 0.00 89 1012.3
20260503042455 56 86 0.0 0.0 0.00 0.00 0.00 89 1012.2
20260503042354 56 86 0.0 0.0 0.00 0.00 0.00 89 1012.3
20260503042250 56 86 0.0 0.0 0.00 0.00 0.00 89 1012.3
20260503042149 56 86 0.0 0.0 0.00 0.00 0.00 89 1012.3
20260503042044 56 86 0.0 0.0 0.00 0.00 0.00 89 1012.2
20260503041942 56 86 0.0 0.0 0.00 0.00 0.00 89 1012.3
20260503041844 56 86 0.0 0.0 0.00 0.00 0.00 89 1012.2
20260503041743 56 86 0.0 0.0 0.00 0.00 0.00 89 1012.3
20260503041643 56 86 0.0 0.0 0.00 0.00 0.00 89 1012.3
20260503041542 56 86 0.0 0.0 0.00 0.00 0.00 89 1012.3
20260503041441 56 86 0.0 0.0 0.00 0.00 0.00 89 1012.3
20260503041341 56 86 0.0 0.0 0.00 0.00 0.00 89 1012.2
20260503041241 56 86 0.0 0.0 0.00 0.00 0.00 89 1012.2
20260503041142 56 86 0.0 0.0 0.00 0.00 0.00 89 1012.1
20260503041043 56 86 0.0 0.0 0.00 0.00 0.00 89 1012.2
20260503040941 56 86 0.0 0.0 0.00 0.00 0.00 89 1012.3
20260503040841 56 86 0.0 0.0 0.00 0.00 0.00 88 1012.2
20260503040743 56 86 0.0 0.0 0.00 0.00 0.00 88 1012.2
20260503040642 56 86 0.0 0.0 0.00 0.00 0.00 88 1012.2
20260503040543 56 86 0.0 0.0 0.00 0.00 0.00 88 1012.1
20260503040443 56 86 0.0 0.0 0.00 0.00 0.00 88 1012.1
20260503040342 56 86 0.0 0.0 0.00 0.00 0.00 88 1012.1
20260503040243 56 86 0.0 0.0 0.00 0.00 0.00 88 1012.2
20260503040143 56 86 0.0 0.0 0.00 0.00 0.00 88 1012.2
20260503040042 56 86 0.0 0.0 0.00 0.00 0.00 89 1012.2
20260503035941 56 86 0.0 0.0 0.00 0.00 0.00 89 1012.2
20260503035842 57 86 0.0 0.0 0.00 0.00 0.00 88 1012.2
20260503035743 57 86 0.0 0.0 0.00 0.00 0.00 88 1012.2
20260503035640 57 86 0.0 0.0 0.00 0.00 0.00 88 1012.2
20260503035542 57 86 0.0 0.0 0.00 0.00 0.00 88 1012.3
20260503035441 56 86 0.0 0.0 0.00 0.00 0.00 88 1012.2
20260503035342 56 86 0.0 0.0 0.00 0.00 0.00 88 1012.2
20260503035245 56 86 0.0 0.0 0.00 0.00 0.00 88 1012.3
20260503035141 57 86 0.0 0.0 0.00 0.00 0.00 88 1012.3
20260503035042 57 86 0.0 0.0 0.00 0.00 0.00 88 1012.3
20260503034941 57 86 0.0 0.0 0.00 0.00 0.00 88 1012.3
20260503034842 57 86 0.0 0.0 0.00 0.00 0.00 88 1012.3
20260503034743 57 86 0.0 0.0 0.00 0.00 0.00 88 1012.3
20260503034642 57 86 0.0 0.0 0.00 0.00 0.00 88 1012.4
20260503034541 57 86 0.0 0.0 0.00 0.00 0.00 88 1012.3
20260503034441 57 86 0.0 0.0 0.00 0.00 0.00 88 1012.2
20260503034340 57 86 0.0 0.0 0.00 0.00 0.00 88 1012.3
20260503034242 57 86 0.0 0.0 0.00 0.00 0.00 88 1012.3
20260503034141 57 86 0.0 0.0 0.00 0.00 0.00 88 1012.2
20260503034042 57 86 0.0 0.0 0.00 0.00 0.00 88 1012.1
20260503033941 57 86 0.0 0.0 0.00 0.00 0.00 88 1012.1
20260503033840 57 86 0.0 0.0 0.00 0.00 0.00 88 1012.1
20260503033741 57 86 0.0 0.0 0.00 0.00 0.00 88 1012.1
20260503033640 57 86 0.0 0.0 0.00 0.00 0.00 88 1012.1
20260503033544 57 86 0.0 0.0 0.00 0.00 0.00 88 1012.0
20260503033441 57 86 0.0 0.0 0.00 0.00 0.00 88 1012.0
20260503033341 57 86 0.0 0.0 0.00 0.00 0.00 88 1011.9
20260503033240 57 86 0.0 0.0 0.00 0.00 0.00 88 1011.9
20260503033141 57 86 0.0 0.0 0.00 0.00 0.00 88 1011.8
20260503033042 57 86 0.0 0.0 0.00 0.00 0.00 88 1011.8
20260503032941 57 86 0.0 0.0 0.00 0.00 0.00 88 1011.9
20260503032840 57 86 0.0 0.0 0.00 0.00 0.00 88 1011.8
20260503032741 57 86 0.0 0.0 0.00 0.00 0.00 88 1011.8
20260503032640 57 86 0.0 0.0 0.00 0.00 0.00 88 1011.8
20260503032540 57 86 0.0 0.0 0.00 0.00 0.00 88 1011.8
20260503032442 57 86 0.0 0.0 0.00 0.00 0.00 88 1011.8
20260503032341 57 86 0.0 0.0 0.00 0.00 0.00 88 1011.8
20260503032240 57 86 0.0 0.0 0.00 0.00 0.00 88 1011.8
20260503032140 57 86 0.0 0.0 0.00 0.00 0.00 88 1011.7
20260503032041 57 86 0.0 0.0 0.00 0.00 0.00 88 1011.8
20260503031941 57 86 0.0 0.0 0.00 0.00 0.00 88 1011.7
20260503031841 57 86 0.0 0.0 0.00 0.00 0.00 88 1011.7
20260503031741 57 86 0.0 0.0 0.00 0.00 0.00 88 1011.7
20260503031641 57 86 0.0 0.0 0.00 0.00 0.00 88 1011.7
20260503031541 57 86 0.0 0.0 0.00 0.00 0.00 88 1011.7
20260503031441 58 86 0.0 0.0 0.00 0.00 0.00 88 1011.7
20260503031341 58 86 0.0 0.0 0.00 0.00 0.00 88 1011.7
20260503031240 58 86 0.0 0.0 0.00 0.00 0.00 88 1011.7
20260503031141 58 86 0.0 0.0 0.00 0.00 0.00 87 1011.6
20260503031042 58 86 0.0 0.0 0.00 0.00 0.00 88 1011.7
20260503030942 58 86 0.0 0.0 0.00 0.00 0.00 88 1011.6
20260503030841 58 86 0.0 0.0 0.00 0.00 0.00 88 1011.6
20260503030740 58 86 0.0 0.0 0.00 0.00 0.00 88 1011.7
20260503030642 58 86 0.0 0.0 0.00 0.00 0.00 88 1011.7
20260503030540 58 86 0.0 0.0 0.00 0.00 0.00 88 1011.7
20260503030440 58 86 0.0 0.0 0.00 0.00 0.00 88 1011.7
20260503030341 58 86 0.0 0.0 0.00 0.00 0.00 88 1011.8
20260503030241 58 86 0.0 0.0 0.00 0.00 0.00 88 1011.8
20260503030141 58 86 0.0 0.0 0.00 0.00 0.00 87 1011.8
20260503030039 58 86 0.0 0.0 0.00 0.00 0.00 87 1011.8
20260503025942 58 86 0.0 0.0 0.00 0.00 0.00 87 1011.8
20260503025842 58 86 0.0 0.0 0.00 0.00 0.00 87 1011.8
20260503025742 58 86 0.0 0.0 0.00 0.00 0.00 87 1011.7
20260503025642 58 86 0.0 0.0 0.00 0.00 0.00 87 1011.7
20260503025542 58 86 0.0 0.0 0.00 0.00 0.00 87 1011.7
20260503025440 58 86 0.0 0.0 0.00 0.00 0.00 87 1011.7
20260503025342 58 86 0.0 0.0 0.00 0.00 0.00 87 1011.7
20260503025239 58 86 0.0 0.0 0.00 0.00 0.00 87 1011.7
20260503025139 58 86 0.0 0.0 0.00 0.00 0.00 87 1011.6
20260503025040 58 86 0.0 0.0 0.00 0.00 0.00 87 1011.6
20260503024940 58 86 0.0 0.0 0.00 0.00 0.00 87 1011.5
20260503024840 58 86 0.0 0.0 0.00 0.00 0.00 87 1011.5
20260503024739 58 86 0.0 0.0 0.00 0.00 0.00 87 1011.5
20260503024639 58 86 0.0 0.0 0.00 0.00 0.00 87 1011.6
20260503024542 58 86 0.0 0.0 0.00 0.00 0.00 87 1011.5
20260503024441 58 86 0.0 0.0 0.00 0.00 0.00 87 1011.6
20260503024341 58 86 0.0 0.0 0.00 0.00 0.00 87 1011.6
20260503024239 58 86 0.0 0.0 0.00 0.00 0.00 87 1011.7
20260503024140 58 86 0.0 0.0 0.00 0.00 0.00 87 1011.7
20260503024040 58 86 0.0 0.0 0.00 0.00 0.00 87 1011.7
20260503023940 58 86 0.0 0.0 0.00 0.00 0.00 87 1011.7
20260503023839 58 86 0.0 0.0 0.00 0.00 0.00 87 1011.7
20260503023739 58 86 0.0 0.0 0.00 0.00 0.00 87 1011.7
20260503023640 58 86 0.0 0.0 0.00 0.00 0.00 87 1011.7
20260503023540 58 86 0.0 0.0 0.00 0.00 0.00 86 1011.7
20260503023440 58 86 0.0 0.0 0.00 0.00 0.00 86 1011.7
20260503023341 58 86 0.0 0.0 0.00 0.00 0.00 86 1011.7
20260503023239 58 86 0.0 0.0 0.00 0.00 0.00 86 1011.7
20260503023139 58 86 0.0 0.0 0.00 0.00 0.00 86 1011.7
20260503023040 58 86 0.0 0.0 0.00 0.00 0.00 86 1011.7
20260503022940 59 86 0.0 0.0 0.00 0.00 0.00 86 1011.7
20260503022842 59 86 0.0 0.0 0.00 0.00 0.00 86 1011.7
20260503022740 59 86 0.0 0.0 0.00 0.00 0.00 86 1011.6
20260503022640 59 86 0.0 0.0 0.00 0.00 0.00 86 1011.6
20260503022540 59 86 0.0 0.0 0.00 0.00 0.00 86 1011.6
20260503022439 59 86 0.0 0.0 0.00 0.00 0.00 86 1011.6
20260503022339 59 86 0.0 0.0 0.00 0.00 0.00 86 1011.5
20260503022240 59 86 0.0 0.0 0.00 0.00 0.00 86 1011.5
20260503022140 59 86 0.0 0.0 0.00 0.00 0.00 86 1011.5
20260503022040 59 86 0.0 0.0 0.00 0.00 0.00 86 1011.4
20260503021940 59 86 0.0 0.0 0.00 0.00 0.00 86 1011.4
20260503021840 59 86 0.0 0.0 0.00 0.00 0.00 86 1011.3
20260503021739 59 86 0.0 0.0 0.00 0.00 0.00 86 1011.3
20260503021640 59 86 0.0 0.0 0.00 0.00 0.00 86 1011.3
20260503021539 59 86 0.0 0.0 0.00 0.00 0.00 86 1011.3
20260503021439 59 86 0.0 0.0 0.00 0.00 0.00 86 1011.2
20260503021341 59 86 0.0 0.0 0.00 0.00 0.00 86 1011.3
20260503021239 59 86 0.0 0.0 0.00 0.00 0.00 85 1011.2
20260503021140 59 86 0.0 0.0 0.00 0.00 0.00 85 1011.2
20260503021039 59 86 0.0 0.0 0.00 0.00 0.00 85 1011.2
20260503020939 59 86 0.0 0.0 0.00 0.00 0.00 85 1011.2
20260503020839 59 86 0.0 0.0 0.00 0.00 0.00 85 1011.3
20260503020739 60 86 0.0 0.0 0.00 0.00 0.00 85 1011.3
20260503020639 60 86 0.0 0.0 0.00 0.00 0.00 85 1011.3
20260503020539 60 86 0.0 0.0 0.00 0.00 0.00 85 1011.2
20260503020439 60 86 0.0 0.0 0.00 0.00 0.00 85 1011.3
20260503020339 60 86 0.0 0.0 0.00 0.00 0.00 85 1011.3
20260503020238 60 86 0.0 0.0 0.00 0.00 0.00 85 1011.3
20260503020139 60 86 0.0 0.0 0.00 0.00 0.00 85 1011.3
20260503020039 60 86 0.0 0.0 0.00 0.00 0.00 85 1011.3
20260503015939 60 86 0.0 0.0 0.00 0.00 0.00 85 1011.3
20260503015838 60 86 0.0 0.0 0.00 0.00 0.00 85 1011.4
20260503015740 60 86 0.0 0.0 0.00 0.00 0.00 85 1011.3
20260503015640 60 86 0.0 0.0 0.00 0.00 0.00 85 1011.3
20260503015538 60 86 0.0 0.0 0.00 0.00 0.00 85 1011.3
20260503015440 60 86 0.0 0.0 0.00 0.00 0.00 85 1011.3
20260503015338 60 86 0.0 0.0 0.00 0.00 0.00 84 1011.2
20260503015239 60 86 0.0 0.0 0.00 0.00 0.00 84 1011.2
20260503015138 60 86 0.0 0.0 0.00 0.00 0.00 84 1011.1
20260503015038 60 86 0.0 0.0 0.00 0.00 0.00 84 1011.1
20260503014938 60 86 0.0 0.0 0.00 0.00 0.00 84 1011.2
20260503014838 60 86 0.0 0.0 0.00 0.00 0.00 84 1011.2
20260503014739 60 86 0.0 0.0 0.00 0.00 0.00 84 1011.1
20260503014638 60 86 0.0 0.0 0.00 0.00 0.00 84 1011.1
20260503014538 60 86 0.0 0.0 0.00 0.00 0.00 84 1011.1
20260503014438 60 86 0.0 0.0 0.00 0.00 0.00 84 1011.0
20260503014338 61 86 0.0 0.0 0.00 0.00 0.00 83 1011.0
20260503014238 61 86 0.0 0.0 0.00 0.00 0.00 83 1011.0
20260503014138 61 86 0.0 0.0 0.00 0.00 0.00 83 1011.0
20260503014039 61 86 0.0 0.0 0.00 0.00 0.00 83 1011.0
20260503013937 61 86 0.0 0.0 0.00 0.00 0.00 83 1011.0
20260503013837 61 86 0.0 0.0 0.00 0.00 0.00 83 1011.0
20260503013739 62 86 0.0 0.0 0.00 0.00 0.00 82 1011.0
20260503013638 62 86 0.0 0.0 0.00 0.00 0.00 82 1011.0
20260503013539 62 86 0.0 0.0 0.00 0.00 0.00 82 1011.0
20260503013438 62 86 0.0 0.0 0.00 0.00 0.00 82 1011.0
20260503013337 62 86 0.0 0.0 0.00 0.00 0.00 82 1011.0
20260503013238 62 86 0.0 0.0 0.00 0.00 0.00 82 1011.1
20260503013139 62 86 0.0 0.0 0.00 0.00 0.00 82 1011.0
20260503013038 62 86 0.0 0.0 0.00 0.00 0.00 82 1011.0
20260503012939 62 86 0.0 0.0 0.00 0.00 0.00 82 1011.0
20260503012838 62 86 0.0 0.0 0.00 0.00 0.00 82 1011.0
20260503012737 62 86 0.0 0.0 0.00 0.00 0.00 82 1011.0
20260503012638 62 86 0.0 0.0 0.00 0.00 0.00 82 1010.9
20260503012537 62 86 0.0 0.0 0.00 0.00 0.00 82 1011.0
20260503012437 62 86 0.0 0.0 0.00 0.00 0.00 82 1011.0
20260503012338 62 86 0.0 0.0 0.00 0.00 0.00 80 1010.9
20260503012238 62 86 0.0 0.0 0.00 0.00 0.00 80 1011.0
20260503012138 62 86 0.0 0.0 0.00 0.00 0.00 80 1010.9
20260503012036 62 86 0.0 0.0 0.00 0.00 0.00 80 1010.9
20260503011931 63 86 0.0 0.0 0.00 0.00 0.00 80 1010.9
20260503011831 63 86 0.0 0.0 0.00 0.00 0.00 80 1010.8
20260503011731 63 86 0.0 0.0 0.00 0.00 0.00 80 1010.9
20260503011631 63 86 0.0 0.0 0.00 0.00 0.00 80 1010.9
20260503011531 63 86 0.0 0.0 0.00 0.00 0.00 80 1010.8
20260503011432 64 86 0.0 0.0 0.00 0.01 0.00 79 1010.8
20260503011331 64 86 0.0 0.0 0.00 0.01 0.00 79 1010.8
20260503011231 64 86 0.0 0.0 0.00 0.01 0.00 79 1010.8
20260503011132 64 86 0.0 0.0 0.00 0.01 0.00 79 1010.8
20260503011030 64 86 0.0 0.0 0.00 0.01 0.00 79 1010.7
20260503010931 64 86 0.0 0.0 0.00 0.01 0.00 79 1010.8
20260503010829 64 86 0.0 0.0 0.00 0.01 0.00 78 1010.8
20260503010727 64 86 0.0 0.0 0.00 0.01 0.00 78 1010.8
20260503010627 64 86 0.0 0.0 0.00 0.01 0.00 78 1010.8
20260503010526 64 86 0.0 0.0 0.00 0.01 0.00 78 1010.8
20260503010425 64 86 0.0 0.0 0.00 0.01 0.00 77 1010.8
20260503010325 64 86 0.0 0.0 0.00 0.01 0.00 76 1010.8
20260503010216 65 86 0.0 0.0 0.00 0.01 0.00 76 1010.6
20260503010103 65 86 0.0 0.0 0.00 0.01 0.00 76 1010.7
20260503010003 65 86 0.0 0.0 0.00 0.02 0.00 75 1010.7
20260503005903 65 86 0.0 0.0 0.00 0.02 0.00 75 1010.7